This demonstration page uses our WeatherBlox Daily Observations layout. Learn more.

Left ArrowRight Arrow

Hourly Observations for June 30, 2022

Temp ( °F °C ) Dew Point ( °F °C ) Humidity (%) Winds ( mph kmh ) Pressure ( in mb ) Visibility ( mi km ) Precip ( " mm )
12:56 am 00:56 Clear 77 25 55 12.8 47 47 S 21 33 29.89 1012 10 16 0.00 0.00
1:56 am 01:56 Clear 76 24.4 56 13.3 50 50 S 18 30 29.89 1012 10 16 0.00 0.00
2:56 am 02:56 Clear 75 23.9 56 13.3 52 52 SSW 17 28 29.92 1013 10 16 0.00 0.00
3:56 am 03:56 Clear 72 22.2 56 13.3 57 57 S 18 30 29.89 1012 10 16 0.00 0.00
4:56 am 04:56 Clear 72 22.2 56 13.3 57 57 S 18 30 29.86 1011 10 16 0.00 0.00
5:56 am 05:56 Clear 70 21.1 56 13.3 61 61 S 20 31 29.85 1011 10 16 0.00 0.00
6:56 am 06:56 Sunny 71 21.7 57 13.9 61 61 SSW 10 17 29.88 1012 10 16 0.00 0.00
7:56 am 07:56 Sunny 69 20.6 58 14.4 68 68 SSW 12 19 29.88 1012 10 16 0.00 0.00
8:56 am 08:56 Sunny 75 23.9 58 14.4 55 55 SSW 16 26 29.86 1011 10 16 0.00 0.00
9:56 am 09:56 Sunny 78 25.6 59 15 52 52 SSW 15 24 29.85 1011 10 16 0.00 0.00
10:56 am 10:56 Sunny 81 27.2 61 16.1 51 51 WSW 13 20 29.85 1011 10 16 0.00 0.00
11:56 am 11:56 Sunny 85 29.4 63 17.2 48 48 SSW 9 15 29.84 1011 10 16 0.00 0.00
12:56 pm 12:56 Sunny 88 31.1 62 16.7 42 42 W 6 9 29.83 1010 10 16 0.00 0.00
1:56 pm 13:56 Sunny 90 32.2 63 17.2 41 41 VRB 5 7 29.83 1010 10 16 0.00 0.00
2:56 pm 14:56 Sunny 91 32.8 65 18.3 42 42 SW 7 11 29.83 1010 9 14 0.00 0.00
3:56 pm 15:56 Mostly Sunny 92 33.3 60 15.6 34 34 WSW 3 6 29.83 1010 10 16 0.00 0.00
4:56 pm 16:56 Sunny 95 35 59 15 30 30 VRB 3 6 29.82 1010 10 16 0.00 0.00
5:56 pm 17:56 Sunny 89 31.7 70 21.1 53 53 SSE 5 7 29.84 1010 10 16 0.00 0.00
6:56 pm 18:56 Sunny 91 32.8 68 20 47 47 SSE 3 6 29.82 1010 10 16 0.00 0.00
7:56 pm 19:56 Sunny 87 30.6 66 18.9 50 50 NNE 21 33 29.84 1011 10 16 0.00 0.00
8:24 pm 20:24 Mostly Sunny 84 29 66 19 55 55 NE 12 19 29.78 1008 10 16 0.00 0.00
8:56 pm 20:56 Sunny 84 28.9 65 18.3 53 53 NE 14 22 29.86 1011 10 16 0.00 0.00
9:05 pm 21:05 Hazy 82 28 64 18 55 55 NNE 14 22 29.80 1009 1 2 0.00 0.00
9:15 pm 21:15 Clear 82 28 64 18 55 55 NE 12 19 29.80 1009 10 16 0.00 0.00
9:56 pm 21:56 Clear 81 27.2 60 15.6 49 49 ENE 14 22 29.88 1012 10 16 0.00 0.00
10:56 pm 22:56 Clear 78 25.6 61 16.1 56 56 E 8 13 29.94 1014 10 16 0.00 0.00
11:56 pm 23:56 Clear 75 23.9 62 16.7 64 64 NNE 7 11 29.96 1015 10 16 0.00 0.00

Powered by AerisWeather